Regional Weather Roundup
Issued by NWS Upton, NY

Current Version | Previous Version | Text Only | Print | Product List | Glossary On
Versions: 1 2 3 4 5 6 7 8 9 10 11 12 13 14 15 16 17 18 19 20 21 22 23 24 25 26
000
ASUS41 KOKX 172308
RWROKX

REGIONAL WEATHER ROUNDUP
NATIONAL WEATHER SERVICE NEW YORK NY
600 PM EST TUE JAN 17 2017

NOTE: "FAIR" INDICATES FEW OR NO CLOUDS BELOW 12,000 FEET WITH NO
SIGNIFICANT WEATHER AND/OR OBSTRUCTIONS TO VISIBILITY.

NYZ071-072-176-178-NJZ106-104-180000-
NEW YORK CITY METRO AREA

CITY           SKY/WX    TMP DP  RH WIND       PRES   REMARKS
Central Park   LGT RAIN  39  37  92 VRB3      30.10F FOG
Wall St Helipt CLOUDY    40  38  93 NE9G17    30.10S WCI  34
Bronx Bot Gard NOT AVBL
LaGuardia APRT LGT RAIN  41  37  86 NE12      30.09S FOG
Kennedy INTL   CLOUDY    40  35  83 NE10      30.10F WCI  33
Breezy Point     N/A     37 N/A N/A E9          N/A  WCI  31
Newark/Liberty HVY RAIN  41  37  86 E6        30.08F FOG
Teterboro      LGT RAIN  40  36  86 NE8       30.07F FOG     WCI  34
$$

NYZ177-179-078>081-180000-
LONG ISLAND NEW YORK

CITY           SKY/WX    TMP DP  RH WIND       PRES   REMARKS
Jones Beach      N/A     37 N/A N/A E12         N/A  WCI  30
Matinecock PT    N/A     37 N/A N/A E12         N/A  WCI  30
Farmingdale    CLOUDY    38  36  92 E7        30.09F FOG     WCI  33
MacArthur/ISP  LGT RAIN  38  38 100 E5        30.10S FOG     WCI  34
Shirley        CLOUDY    38  37  97 CALM      30.12R FOG
Westhampton    LGT RAIN  39  34  82 E8        30.12S WCI  33
Southampton    NOT AVBL
Bridgehampton  NOT AVBL
East Hampton   CLOUDY    38  32  79 E7        30.12S WCI  33
Montauk          N/A     40  34  79 E6        30.13F
$$

NYZ052-065-067-180000-
HUDSON VALLEY

CITY           SKY/WX    TMP DP  RH WIND       PRES   REMARKS
White Plains   LGT RAIN  36  33  89 E7        30.08S FOG     WCI  30
Newburgh       RAIN      34  34 100 E8        30.08F FOG     WCI  27
Montgomery     CLOUDY    35  33  92 NE6       30.05F FOG     WCI  30
Poughkeepsie   LGT RAIN  33  32  96 SE5       30.09F FOG     WCI  29
Albany         FRZ RAIN  33  30  88 SE3       30.08F FOG
$$

NJZ001-105-106-008-010-013-015-019>022-104-180000-
NEW JERSEY

CITY           SKY/WX    TMP DP  RH WIND       PRES   REMARKS
Newark/Liberty HVY RAIN  41  37  86 E6        30.08F FOG
Teterboro      LGT RAIN  40  36  86 NE8       30.07F FOG     WCI  34
Caldwell       LGT RAIN  38  36  92 E5        30.08F FOG     WCI  34
Somerville     HVY RAIN  39  37  92 E5        30.03F FOG
Linden         RAIN      40  37  90 SE6       30.09R
Sussex         RAIN      35  34  96 VRB3      30.04F FOG
Andover          N/A     36  34  92 VRB3      30.05F
Trenton        HVY RAIN  41  40  96 E8        30.02F FOG
Millville      RAIN      44  44 100 SE5       30.00F FOG
Atlantic City  LGT RAIN  45  44  97 S9        30.03F FOG
Wrightstown    LGT RAIN  42  40  93 E7        30.00F
Toms River     LGT RAIN  42  41  96 E5        30.04F
Belmar         CLOUDY    43  40  89 SE8       30.05F
$$

PAZ047>061-062-071-180000-
EASTERN PENNSYLVANIA

CITY           SKY/WX    TMP DP  RH WIND       PRES   REMARKS
Philadelphia   LGT RAIN  44  42  93 E6        30.02F FOG
Allentown      LGT RAIN  37  34  89 E7        30.02F FOG     WCI  32
Scranton       CLOUDY    37  36  96 SE7       29.97F WCI  32
$$

CTZ002-004>006-009-010-012-RIZ004-006-007-MAZ004-011-015-180000-
SOUTHERN NEW ENGLAND
 IN CT

CITY           SKY/WX    TMP DP  RH WIND       PRES   REMARKS
Bradley INTL   LGT RAIN  34  29  82 N7        30.15R WCI  28
Hartford       RAIN      36  29  75 N6        30.16R WCI  31
Danbury        CLOUDY    34  30  85 CALM      30.11S
Wtrbury/Oxford CLOUDY    34  28  80 SE5       30.10S FOG     WCI  30
Bridgeport     CLOUDY    40  32  73 E13       30.13R WCI  32
Meriden        LGT RAIN  37  34  89 CALM      30.14R FOG
New Haven      LGT RAIN  38  31  76 E9        30.12S WCI  31
Chester        CLOUDY    36  32  87 E3        30.11S
Groton         LGT RAIN  38  28  67 E8        30.13F WCI  32
Wilimantic     CLOUDY    37  34  89 CALM      30.14F

 IN RI

CITY           SKY/WX    TMP DP  RH WIND       PRES   REMARKS
Providence     LGT RAIN  39  33  79 E3        30.16F
Block Island   NOT AVBL
Westerly       LGT RAIN  39  27  62 E6        30.14F WCI  35
 IN MA

CITY           SKY/WX    TMP DP  RH WIND       PRES   REMARKS
Boston         LGT RAIN  40  35  83 E15       30.18F WCI  32
Worcester      RAIN      33  29  85 E8        30.12S WCI  26
Westfield      RAIN      33  32  96 NE3       30.15R FOG
Provincetown   CLOUDY    41  33  73 E13       30.19F
Nantucket      LGT RAIN  39  32  76 NE5       30.17S
$$

ANZ330-335-338-340-345-350-353-355-180000-
COASTAL MARINE OBSERVATIONS


STATION/POSITION TIME  SKY/WX   TEMP    WIND        PRES    VSBY  WAVE
                                AIR SEA DIR/SP/G                  HT/PER
                 (UTC)          (F)     (DEG/KT/KT) (MB)    (MI)  (FT/S)
NY HARB ENTRANCE 2150            44 44  130/ 10/ 12 1018.9          1/ 9
20 S FIRE ISLAND 2250            45 45  140/ 10/ 12 1018.7          1/ 8
GREAT SOUTH BAY  NOT AVBL
23 SSW MONTAUK P 2150            44 48  110/ 10/ 10 1020.7          1/ 9
15 E BARNEGAT LI 2230               43                N/A           2/10
HUDSON CANYON    2250            49 53              1019.2          2/10
KINGS POINT      2230            38 38              1019.0
EXECUTION ROCKS  2245            38      70/  8/ 12   N/A
CENTRAL LI SOUND 2230            40      90/ 14/ 17   N/A           1/ 3
EASTERN LI SOUND NOT AVBL
ROBBINS REEF     2230            40     100/ 14/ 16 1018.4
$$


>>>>>>>>>>>>>>>>>>>>>>>>>>>> KEY <<<<<<<<<<<<<<<<<<<<<<<<<<<
>                                                          <
>     SKY/WX - Sky Condition/Present Weather               <
>     TMP    - Temperature in Fahrenheit                   <
>     DP     - Dew Point in Fahrenheit                     <
>     RH     - Relative Humidity in Percent                <
>     WIND   - Direction (from) and Speed in MPH           <
>     PRES   - Mean Sea Level Pressure (inches of Hg)      <
>     WCI    - Wind Chill Index                            <
>     VSB    - VISIBILITY IN MILES                         <
>     HX     - HEAT INDEX                                  <
>     TC     - TEMPERATURE IN CELSIUS                      <
>     VRB    - VARIABLE WIND DIRECTION                     <
>                                                          <
>>>>>>>>>>>>>>>>>>>>>>>>>>>> KEY <<<<<<<<<<<<<<<<<<<<<<<<<<<




USA.gov is the U.S. government's official web portal to all federal, state and local government web resources and services.